CW9119 Weather Reports


Display with metric or nautical units.
time (UTC)temp
F
wind
direction
speed
MPH
gust
MPH
rain 1hr
in
rain 24hr
in
rain mn
in
humidity
%
barometer
mb
20260903163111 64 153 0.0 1.0 0.00 0.09 0.01 72 1016.8
20260903161111 65 153 0.0 0.0 0.00 0.09 0.01 71 1016.9
20260903160111 65 152 0.0 2.0 0.00 0.09 0.01 70 1017.0
20260903155111 65 152 0.0 0.0 0.00 0.09 0.01 71 1017.1
20260903151111 65 196 1.0 7.0 0.00 0.09 0.01 66 1017.3
20260903150110 65 316 2.0 10.0 0.00 0.09 0.01 66 1017.5
20260903144110 66 144 0.0 6.0 0.00 0.09 0.01 67 1017.5
20260903141110 66 193 2.0 6.0 0.00 0.09 0.01 66 1017.8
20260903132110 66 109 2.0 8.0 0.00 0.09 0.01 68 1018.0
20260903130110 65 148 2.0 10.0 0.00 0.09 0.01 71 1018.2
20260903125110 65 144 1.0 7.0 0.00 0.09 0.01 71 1018.1
20260903124110 64 146 0.0 6.0 0.00 0.09 0.01 71 1018.1
20260903123110 64 146 1.0 8.0 0.00 0.09 0.01 71 1017.9
20260903122110 64 160 1.0 6.0 0.00 0.09 0.01 74 1017.9
20260903121109 63 105 2.0 7.0 0.00 0.09 0.01 77 1017.9
20260903120110 63 196 0.0 5.0 0.00 0.09 0.01 77 1018.0
20260903115109 63 175 0.0 1.0 0.00 0.09 0.01 76 1018.0
20260903113109 64 173 0.0 1.0 0.00 0.09 0.01 77 1018.3
20260903111109 64 151 1.0 7.0 0.00 0.09 0.01 75 1018.5
20260903110109 64 151 0.0 1.0 0.00 0.09 0.01 77 1018.4
20260903105109 64 152 2.0 11.0 0.00 0.09 0.01 76 1018.4
20260903103109 65 115 1.0 6.0 0.00 0.09 0.01 73 1018.7
20260903102109 65 109 0.0 6.0 0.00 0.09 0.01 74 1018.6
20260903100109 65 181 0.0 2.0 0.00 0.09 0.01 77 1018.9
20260903093108 64 136 2.0 7.0 0.00 0.09 0.01 75 1019.0
20260903091108 65 281 1.0 5.0 0.00 0.09 0.01 76 1019.0
20260903090108 65 153 2.0 8.0 0.00 0.09 0.01 75 1019.0
20260903082108 63 159 2.0 8.0 0.00 0.09 0.01 81 1019.0
20260903075113 61 154 0.0 0.0 0.00 0.09 0.01 95 1019.1
20260903073113 59 155 0.0 0.0 0.00 0.09 0.01 96 1019.0
20260903064113 55 155 0.0 0.0 0.00 0.09 0.01 96 1019.1
20260903062112 52 155 0.0 0.0 0.00 0.09 0.01 96 1018.8
20260903061112 51 159 0.0 0.0 0.00 0.09 0.01 95 1018.9
20260903054112 49 159 0.0 0.0 0.00 0.09 0.01 95 1019.2
20260903053112 49 159 0.0 0.0 0.00 0.09 0.01 95 1019.2
20260903052112 49 159 0.0 0.0 0.00 0.09 0.01 95 1019.1
20260903051112 48 159 0.0 0.0 0.00 0.09 0.01 95 1019.0
20260903045112 48 159 0.0 0.0 0.00 0.09 0.01 95 1019.3
20260903044112 48 159 0.0 0.0 0.00 0.09 0.01 94 1019.1
20260903040112 48 159 0.0 0.0 0.00 0.09 0.01 94 1018.6
20260903033109 49 159 0.0 0.0 0.00 0.09 0.01 94 1018.8
20260903032109 49 159 0.0 0.0 0.00 0.09 0.01 94 1018.8
20260903031109 49 159 0.0 0.0 0.00 0.09 0.01 94 1019.0
20260903025109 49 159 0.0 0.0 0.00 0.09 0.01 94 1019.1
20260903021109 50 159 0.0 0.0 0.00 0.09 0.01 94 1018.9
20260903020109 50 159 0.0 0.0 0.00 0.09 0.01 94 1019.1
20260903015109 50 159 0.0 0.0 0.00 0.12 0.01 94 1019.1
20260903011108 51 159 0.0 0.0 0.00 0.12 0.01 94 1019.2
20260903005111 51 159 0.0 0.0 0.00 0.12 0.01 94 1019.2
20260903002111 51 159 0.0 0.0 0.00 0.12 0.01 93 1019.3
20260902234110 52 159 0.0 0.0 0.01 0.12 0.01 93 1019.3
20260902233110 52 159 0.0 0.0 0.01 0.12 0.01 93 1019.4
20260902232110 53 159 0.0 0.0 0.01 0.12 0.01 93 1019.5
20260902231110 53 159 0.0 0.0 0.00 0.11 0.00 93 1019.4
20260902230110 53 159 0.0 0.0 0.00 0.11 0.00 93 1019.4
20260902225110 53 159 0.0 0.0 0.00 0.11 0.00 93 1019.4
20260902223110 53 159 0.0 0.0 0.00 0.11 0.00 93 1019.6
20260902222110 53 159 0.0 0.0 0.00 0.11 0.00 93 1019.5
20260902215109 54 159 0.0 0.0 0.00 0.11 0.11 92 1019.6
20260902213109 54 159 0.0 0.0 0.00 0.11 0.11 91 1019.5
20260902211109 54 159 0.0 0.0 0.00 0.11 0.11 91 1019.4
20260902205109 55 159 0.0 0.0 0.00 0.11 0.11 91 1019.4
20260902204109 55 159 0.0 0.0 0.00 0.11 0.11 90 1019.3
20260902203109 55 159 0.0 0.0 0.00 0.11 0.11 90 1019.3
20260902202109 55 159 0.0 0.0 0.02 0.11 0.11 90 1019.3
20260902201109 56 159 0.0 0.0 0.08 0.11 0.11 89 1019.3
20260902194109 57 159 0.0 0.0 0.08 0.11 0.11 89 1019.2
20260902191108 57 161 0.0 0.0 0.00 0.03 0.03 85 1018.8
20260902190112 58 161 0.0 0.0 0.00 0.03 0.03 83 1018.7
20260902181112 61 161 0.0 0.0 0.00 0.03 0.03 78 1018.4
20260902180112 62 161 0.0 0.0 0.00 0.03 0.03 76 1018.3
20260902170111 66 161 0.0 0.0 0.00 0.03 0.03 69 1018.4